CW4549 Weather Reports


Display with metric or nautical units.
time (UTC)temp
F
wind
direction
speed
MPH
gust
MPH
rain 1hr
in
rain 24hr
in
rain mn
in
humidity
%
barometer
mb
20260510031516 59 0.0 0.0 0.00 0.15 0.15 86 1004.4
20260510030016 59 0.0 0.0 0.00 0.15 0.15 85 1004.3
20260510024516 60 0.0 0.0 0.00 0.15 0.15 84 1004.2
20260510023016 60 0.0 0.0 0.00 0.15 0.15 81 1004.1
20260510021518 61 0.0 0.0 0.00 0.15 0.15 79 1003.9
20260510020016 62 0.0 0.0 0.00 0.15 0.15 77 1003.7
20260510014516 63 0.0 0.0 0.00 0.15 0.15 75 1003.5
20260510013038 64 0.0 0.0 0.00 0.15 0.15 72 1003.2
20260510011516 66 0.0 0.0 0.00 0.15 0.15 66 1003.1
20260510010056 67 0.0 0.0 0.00 0.15 0.15 60 1003.0
20260510004517 69 0.0 0.0 0.00 0.15 0.15 59 1002.7
20260510003016 70 0.0 2.0 0.00 0.15 0.15 55 1002.4
20260510001559 71 0.0 1.0 0.00 0.15 0.15 52 1002.1
20260510000038 72 0.0 3.0 0.00 0.15 0.15 49 1002.0
20260509234518 73 203 1.0 7.0 0.00 0.15 0.15 46 1001.7
20260509233016 73 0.0 5.0 0.00 0.15 0.15 46 1001.6
20260509231518 74 158 1.0 10.0 0.00 0.15 0.15 44 1001.5
20260509230036 74 158 1.0 8.0 0.00 0.15 0.15 46 1001.5
20260509224536 74 180 1.0 7.0 0.00 0.15 0.15 44 1001.5
20260509223018 74 158 3.0 10.0 0.00 0.15 0.15 45 1001.4
20260509221538 74 0.0 8.0 0.00 0.15 0.15 49 1001.5
20260509220016 75 203 2.0 13.0 0.00 0.15 0.15 47 1001.4
20260509214516 75 180 1.0 10.0 0.00 0.15 0.15 52 1001.4
20260509213018 75 180 2.0 8.0 0.00 0.15 0.15 49 1001.5
20260509211517 75 158 1.0 10.0 0.00 0.15 0.15 49 1001.6
20260509210016 75 158 2.0 11.0 0.00 0.15 0.15 50 1001.6
20260509204516 75 158 3.0 12.0 0.00 0.15 0.15 47 1001.5
20260509203036 74 158 1.0 7.0 0.00 0.15 0.15 51 1001.6
20260509201518 74 158 2.0 12.0 0.00 0.15 0.15 52 1001.8
20260509200018 73 158 1.0 14.0 0.00 0.15 0.15 53 1002.0
20260509194517 73 135 2.0 10.0 0.00 0.15 0.15 56 1002.1
20260509193017 73 158 2.0 10.0 0.00 0.15 0.15 55 1002.2
20260509191517 72 180 2.0 13.0 0.00 0.15 0.15 57 1002.3
20260509190017 72 158 2.0 12.0 0.00 0.15 0.15 53 1002.6
20260509184518 72 158 2.0 12.0 0.00 0.15 0.15 56 1002.6
20260509183017 71 225 1.0 10.0 0.00 0.15 0.15 59 1002.7
20260509181517 71 158 2.0 13.0 0.00 0.15 0.15 62 1002.6
20260509180017 71 158 2.0 10.0 0.00 0.15 0.15 61 1002.7
20260509174537 69 180 2.0 8.0 0.00 0.15 0.15 62 1002.6
20260509173017 69 180 1.0 8.0 0.00 0.15 0.15 63 1002.6
20260509171517 68 180 1.0 10.0 0.00 0.15 0.15 64 1002.7
20260509170017 67 180 2.0 10.0 0.00 0.15 0.15 69 1002.8
20260509164518 68 158 1.0 7.0 0.00 0.15 0.15 68 1003.0
20260509163017 68 180 2.0 8.0 0.00 0.15 0.15 67 1003.0
20260509161517 67 158 2.0 10.0 0.00 0.15 0.15 69 1003.1
20260509160018 66 225 1.0 12.0 0.00 0.15 0.15 71 1002.8
20260509154538 66 180 1.0 6.0 0.00 0.15 0.15 77 1002.6
20260509153037 65 225 1.0 7.0 0.00 0.15 0.15 77 1002.6
20260509151537 65 158 1.0 8.0 0.00 0.15 0.15 81 1002.4
20260509150017 63 180 2.0 8.0 0.00 0.15 0.15 86 1002.4
20260509144517 62 180 2.0 8.0 0.00 0.15 0.15 93 1002.2
20260509143017 61 0.0 5.0 0.00 0.15 0.15 99 1002.2
20260509141517 60 158 1.0 7.0 0.00 0.15 0.15 100 1002.2
20260509140037 59 180 1.0 12.0 0.00 0.15 0.15 100 1002.1
20260509134519 59 0.0 3.0 0.00 0.15 0.15 100 1002.2
20260509133017 57 0.0 5.0 0.01 0.15 0.15 100 1002.1
20260509131617 57 0.0 3.0 0.01 0.15 0.15 100 1002.1
20260509130039 57 0.0 3.0 0.01 0.15 0.15 100 1001.9
20260509124517 56 0.0 1.0 0.01 0.15 0.15 100 1001.8
20260509123018 56 0.0 3.0 0.00 0.14 0.14 100 1001.8
20260509121537 56 0.0 1.0 0.01 0.14 0.14 100 1002.1
20260509120017 56 0.0 2.0 0.01 0.14 0.14 100 1002.2
20260509114517 56 0.0 3.0 0.01 0.14 0.14 100 1002.1
20260509113037 55 0.0 2.0 0.01 0.14 0.14 100 1001.9
20260509111520 55 0.0 0.0 0.02 0.13 0.13 100 1001.9
20260509110017 55 0.0 0.0 0.04 0.13 0.13 100 1001.8
20260509104517 55 0.0 0.0 0.06 0.13 0.13 100 1001.6
20260509103017 55 0.0 1.0 0.06 0.13 0.13 100 1002.1
20260509101519 55 0.0 0.0 0.05 0.11 0.11 100 1002.2
20260509100017 55 0.0 0.0 0.03 0.09 0.09 100 1002.4
20260509094517 55 0.0 0.0 0.02 0.07 0.07 100 1002.4
20260509093039 55 0.0 0.0 0.03 0.07 0.07 100 1002.5
20260509091519 55 0.0 0.0 0.03 0.06 0.06 100 1002.2
20260509090017 56 0.0 0.0 0.04 0.06 0.06 100 1002.5
20260509084515 56 0.0 1.0 0.03 0.05 0.05 100 1002.6
20260509083035 56 0.0 0.0 0.03 0.04 0.04 99 1003.0
20260509081515 56 0.0 0.0 0.02 0.03 0.03 99 1003.0
20260509080037 56 0.0 0.0 0.01 0.02 0.02 99 1003.1
20260509074517 56 0.0 0.0 0.02 0.02 0.02 99 1002.9
20260509073017 56 0.0 0.0 0.01 0.01 0.01 98 1003.0
20260509071515 56 0.0 0.0 0.01 0.01 0.01 98 1003.1
20260509070037 56 0.0 0.0 0.01 0.01 0.01 97 1003.3
20260509064516 56 0.0 0.0 0.00 0.00 0.00 97 1003.6
20260509063015 56 0.0 0.0 0.00 0.00 0.00 96 1003.6
20260509061516 56 0.0 0.0 0.00 0.00 0.00 96 1003.8
20260509060017 56 0.0 0.0 0.00 0.00 0.00 95 1003.8
20260509054515 56 0.0 0.0 0.00 0.00 0.00 94 1003.6
20260509053015 56 0.0 0.0 0.00 0.00 0.00 94 1003.6
20260509051537 56 0.0 0.0 0.00 0.00 0.00 93 1003.6
20260509050018 56 0.0 0.0 0.00 0.00 0.00 93 1003.6
20260509044515 56 0.0 0.0 0.00 0.00 0.00 92 1003.7
20260509043016 56 0.0 0.0 0.00 0.00 0.00 91 1003.9
20260509041517 57 0.0 0.0 0.00 0.00 0.00 90 1003.9
20260509040017 57 0.0 0.0 0.00 0.00 0.00 89 1004.0
20260509034516 57 0.0 0.0 0.00 0.00 0.00 88 1004.0
20260509033016 57 0.0 0.0 0.00 0.00 0.00 87 1004.1